Regional Weather Roundup
Issued by NWS

Home | Current Version | Previous Version | Text Only | Print | Product List | Glossary Off
Versions: 1 2 3 4 5 6 7 8 9 10 11 12 13 14 15 16 17 18 19 20 21 22 23 24 25 26 27 28 29 30 31 32 33 34 35 36 37 38 39 40 41 42 43 44 45 46 47 48 49 50

000
ASUS43 KOAX 222310
RWRNE

WEATHER ROUNDUP FOR NEBRASKA
NATIONAL WEATHER SERVICE OMAHA NE
500 PM CST SAT NOV 22 2014

NOTES: SATELLITE DATA IS BEING USED TO AUGMENT CLOUD COVER ABOVE
       12000 FEET.
       "FAIR" INDICATES FEW OR NO CLOUDS BELOW 12,000 FEET WITH NO
       SIGNIFICANT WEATHER AND/OR OBSTRUCTIONS TO VISIBILITY.

  * THESE STATIONS DO NOT REPORT WEATHER SUCH AS RAIN...SNOW OR FOG.

NEZ001>004-019>022-054>056-230000-
NEBRASKA PANHANDLE

CITY           SKY/WX    TMP DP  RH WIND       PRES   REMARKS
SCOTTSBLUFF    CLOUDY    55  28  35 W23G29    29.55R
ALLIANCE       CLOUDY    51  22  31 SW5       29.51S
CHADRON        CLOUDY    49  30  48 SW3       29.47R
KIMBALL        CLOUDY    47  16  28 W3        29.57S
SIDNEY         CLOUDY    49  18  29 W8        29.57R
$$

NEZ057>060-069>072-079>082-230000-
SOUTHWEST NEBRASKA

CITY           SKY/WX    TMP DP  RH WIND       PRES   REMARKS
NORTH PLATTE   MOCLDY    59  24  26 CALM      29.53S
IMPERIAL       MOCLDY    58  13  17 N3        29.52F
LEXINGTON      MOCLDY    53  29  39 SE10      29.54F
MCCOOK         CLEAR     64  23  21 S12       29.51F
OGALLALA       PTCLDY    55  20  26 CALM      29.52F
$$

NEZ005>010-023>029-035>040-094-230000-
NORTH CENTRAL NEBRASKA

CITY           SKY/WX    TMP DP  RH WIND       PRES   REMARKS
VALENTINE      CLOUDY    54  28  36 SW12      29.46R
AINSWORTH      MOCLDY    56  25  29 SW10      29.47S
BROKEN BOW     MOCLDY    55  29  36 S8        29.53S
O`NEILL        MOCLDY    55  32  41 S15       29.48S
ORD            PTCLDY    51  28  41 S8        29.52F
THEDFORD       CLOUDY    59  22  24 SW7       29.51R
$$

NEZ041-046>049-061>064-073>077-083>087-230000-
SOUTH CENTRAL NEBRASKA

CITY           SKY/WX    TMP DP  RH WIND       PRES   REMARKS
AURORA         PTCLDY    52  38  60 S9        29.57F
HASTINGS       PTCLDY    54  35  48 S9        29.57F
HEBRON         CLEAR     58  49  72 S13G18    29.61S
HOLDREGE       PTCLDY    55  34  44 S13       29.55F
KEARNEY *      PTCLDY    48  32  53 SE8       29.58F
YORK           PTCLDY    50  41  71 S9        29.58F
$$

NEZ011>018-030>034-042>045-230000-
NORTHEAST NEBRASKA

CITY           SKY/WX    TMP DP  RH WIND       PRES   REMARKS
NORFOLK        MOCLDY    47  39  74 S14       29.54F
ALBION         MOCLDY    49  34  56 S5        29.56R
BLAIR          CLEAR     53  47  78 S14       29.61F
COLUMBUS *     MOCLDY    46  39  76 S7        29.59F
FREMONT        PTCLDY    50  41  72 SE7       29.60F
TEKAMAH        PTCLDY    47  39  74 S9        29.60F
WAYNE          MOCLDY    43  38  82 S13       29.55F
$$

NEZ050>053-065>068-078-088>093-230000-
SOUTHEAST NEBRASKA

CITY           SKY/WX    TMP DP  RH WIND       PRES   REMARKS
LINCOLN        CLEAR     52  46  80 S10       29.62F
OMAHA EPPLEY   MOCLDY    54  48  80 S14       29.64F
BEATRICE       CLOUDY    55  52  89 S16       29.64F
FALLS CITY     CLOUDY    57  55  93 S10       29.69F
NEBRASKA CITY  CLOUDY    54  54 100 S9        29.67F FOG
PLATTSMOUTH    CLOUDY    54  50  87 S14G21    29.65F
$$

NEZ044-045-051>053-067-230000-
OMAHA AREA

CITY           SKY/WX    TMP DP  RH WIND       PRES   REMARKS
OMAHA EPPLEY   MOCLDY    54  48  80 S14       29.64F
BLAIR          CLEAR     53  47  78 S14       29.61F
FREMONT        PTCLDY    50  41  72 SE7       29.60F
MILLARD        MOCLDY    55  49  80 S6        29.64S
OFFUTT AFB     CLOUDY    55  50  82 S13       29.64F
PLATTSMOUTH    CLOUDY    54  50  87 S14G21    29.65F
WAHOO          FAIR      48  40  74 S10       29.60F
$$



USA.gov is the U.S. government's official web portal to all federal, state and local government web resources and services.